User: anonymous   Login
Location: Castillon
(43.0896°N, 0.2156°E)
Time: 04:01:34
(UTC+00:00)
Language:

Cosmos 1975 Rocket - Orbit

View from above orbital plane
View from above orbital plane
View from above satellite
View from above satellite

Ground track
Ground track

The orbit data is extracted from the following two-line orbital elements,

1 19574U 88093B   21260.39599186  .00000078  00000-0  65726-5 0  9991
2 19574  82.5315 132.7609 0022576  38.4480 134.3659 14.83385084779692
Epoch (UTC): 17 September 2021 09:30:13
Eccentricity: 0.0022576
inclination: 82.5315°
perigee height: 603 km
apogee height: 634 km
right ascension of ascending node: 132.7609°
argument of perigee: 38.4480°
revolutions per day: 14.83385084
mean anomaly at epoch: 134.3659°
orbit number at epoch: 77969

The dashed part of the orbit path shows where the satellite is in the earth's shadow,  

DLR